Pagrindinis puslapis
METAR-TAF:

METAR-TAF

Oro uostai :

Luxeuil-les-Bains, Prancūzija

platuma: 47-47N, ilguma: 006-21E, Aukštis: 278 m

Dabartinis oras

Ataskaita buvo paskelbta 20 minutes, ne 10:30 UTC
Vėjas 6 kt iš Pietryčių, svyruoja nuo Rytų ir Pietų
Temperatūra 23°C
Drėgmė 47%
Slėgis 1018 hPa
Matomumas 10 km arba daugiau
nėra debesų žemiau 1500 m ir nėra kamuolinių lietaus debesų

METAR: LFSX 211030Z AUTO 13006KT 080V180 CAVOK 23/11 Q1018

Laikas: 12:50 (10:50 UTC)

Prognozė

Ataskaita buvo paskelbta 26 valandos ir 50 minutes, ne 08:00 UTC
Prognozė galioja nuo 20 metu 09 UTC su 21 metu 09 UTC
Vėjas 10 kt iš Pietryčių
Matomumas 10 km arba daugiau
nėra debesų žemiau 1500 m ir nėra kamuolinių lietaus debesų
Laikinai
nuo 20 metu 12 UTC su 20 metu 24 UTC
Vėjas 10 kt iš Pietryčių su gūsio iki 20 kt
Tapsmas
nuo 21 metu 03 UTC su 21 metu 05 UTC
Vėjas 3 kt nuo kintamojo kryptimis

TAF: LFSX 200800Z 2009/2109 13010KT CAVOK TEMPO 2012/2024 13010G20KT BECMG 2103/2105 VRB03KT

Orai ataskaitas ir orų prognozės (METAR, TAF).

turimą stotys yra geltonos ir raudonos taškus žemėlapyje.

Perkelti pele per norėdami pamatyti stoties vardą.

Tada spustelėkite, norėdami matyti oro stebėjimo ir prognozės.

Norėdami pakeisti žemėlapį: spustelėkite ant žalios mygtukų su juodo kryžiaus žemyn,; žalią mygtuką su brūkšneliu, jei norite nutolinti; arba žalių rodyklių gretimoms žemėlapius.


METAR-TAF: